Location: Iesi
(43.5167°N, 13.2333°E)
Time: 15:51:28
(UTC+00:00)

Cosmos 1602 - Pass Details

Date: 08 August 2020
Orbit: 513 x 535 km, 82.5° (Epoch: 22 September)

Event Time Altitude Azimuth Distance (km) Brightness Sun altitude
Exits shadow 20:30:34 41° 78° (ENE) 776 4.3 -20.0°
Drops below altitude 10° 20:33:59 10° 22° (NNE) 1,795 6.8 -20.5°
Sets 20:36:13 0° 15° (NNE) 2,693 7.8 -20.7°
